Wind_Speed
76 76 77 77 76 76 75 75 74 74 74 73 73 74 76 78 79 80 80 81 81 81 81 81 81 81 81 82 82 82 83 84 85 86 87 88 89 91 92 92 92 93
76 77 77 78 78 78 77 77 76 75 76 77 77 78 79 81 82 82 83 84 84 85 86 86 86 87 87 87 87 87 87 86 87 88 90 90 92 93 95 95 96 96
77 78 78 78 78 79 79 78 78 77 78 79 81 82 83 84 84 85 86 87 88 88 89 90 91 91 91 92 92 92 92 91 90 90 92 93 95 96 97 99 100 100
79 79 79 80 80 81 81 80 80 81 81 82 84 86 86 87 88 89 90 91 91 92 92 94 95 95 95 95 96 97 97 96 95 95 95 97 98 99 100 101 102 103
84 83 83 84 84 85 85 85 86 86 86 87 88 89 89 90 90 92 93 95 95 95 96 97 98 99 99 99 99 100 101 100 99 100 100 101 101 102 102 103 104 104
91 91 91 91 91 91 91 91 92 92 91 92 92 93 93 94 95 96 97 98 98 98 98 99 101 102 102 103 103 104 104 104 104 104 105 106 106 106 107 107 106 106
97 98 98 96 95 95 95 96 98 99 98 98 98 99 100 100 101 102 102 101 100 100 101 102 103 104 105 106 107 107 107 108 108 108 109 109 110 110 111 110 110 110
100 100 101 100 99 99 99 100 103 104 105 105 105 105 106 106 107 107 107 105 104 103 104 105 106 107 108 108 109 110 110 111 111 112 112 113 113 113 113 114 114 115
104 104 104 105 106 105 105 106 107 108 110 110 111 111 111 111 112 112 111 110 110 110 110 109 110 111 111 111 112 112 113 113 114 115 116 116 116 116 116 117 117 117
106 107 109 111 111 111 110 110 111 111 112 113 114 115 115 115 115 115 115 115 115 114 114 113 113 113 113 113 114 114 114 115 116 116 117 118 118 118 118 118 117 118
105 108 111 113 114 114 114 113 113 114 114 114 116 117 118 118 118 117 117 117 116 115 115 115 114 114 114 114 115 115 116 116 116 116 117 117 118 118 118 118 119 119
106 107 109 110 112 114 115 115 115 115 115 115 117 118 119 118 118 119 118 117 116 116 115 114 114 113 113 114 114 115 116 116 116 116 116 116 116 116 116 117 118 118
109 109 110 110 112 113 114 116 116 116 116 116 118 119 120 119 119 119 118 116 115 114 112 110 110 109 108 109 109 110 111 111 111 112 113 114 114 114 114 115 116 117
110 111 112 112 113 114 115 116 117 117 118 119 120 121 121 120 119 118 117 115 113 110 108 106 104 101 100 101 102 104 105 104 104 105 107 109 110 111 112 113 114 115
110 111 112 113 115 116 117 118 119 120 121 121 121 121 119 118 117 116 115 113 110 108 107 106 104 101 99 100 101 103 104 105 105 105 105 106 106 107 108 109 111 112
109 110 112 113 116 118 119 120 122 122 122 121 120 118 117 115 114 113 112 111 109 109 109 109 108 107 106 106 107 109 110 110 110 110 110 109 108 108 109 109 110 109
109 110 111 112 114 117 119 120 121 122 122 120 116 114 113 113 112 111 109 108 108 108 109 109 108 109 110 111 114 115 116 116 116 116 115 114 112 112 111 110 108 106
104 106 107 108 111 114 116 118 119 120 119 117 113 111 109 109 109 108 106 105 105 105 106 106 107 109 111 114 117 118 118 118 118 117 116 114 112 110 109 107 105 103
99 100 101 103 104 105 107 109 110 112 112 111 110 109 108 107 106 106 105 104 104 104 105 106 109 111 115 117 118 118 117 116 116 115 112 110 108 106 104 102 101 99
99 98 98 97 98 98 100 102 103 104 106 106 107 108 109 109 109 108 107 105 106 107 109 111 114 117 120 120 117 115 114 114 113 112 110 108 106 104 102 100 100 99
106 103 102 101 101 103 104 105 104 105 106 107 107 109 111 112 113 111 110 110 111 112 114 117 120 123 122 118 113 111 112 113 112 111 110 108 106 104 102 101 101 101
114 112 111 111 111 111 111 110 108 109 110 110 111 112 115 116 117 117 117 117 117 118 120 123 125 124 119 113 109 109 112 113 113 112 111 110 108 105 103 103 102 101
119 119 119 118 118 118 117 116 115 114 114 116 118 119 121 122 124 124 124 122 121 122 125 126 124 119 113 110 109 110 112 113 114 113 112 111 109 106 104 104 103 101
122 122 123 124 124 124 124 124 123 122 121 122 124 125 126 126 127 127 126 124 123 124 125 124 119 113 111 110 110 110 111 113 114 114 113 111 109 107 106 105 104 102
122 124 126 128 129 131 132 132 131 129 127 127 128 129 129 129 130 130 128 127 126 125 123 119 114 111 109 109 109 110 111 113 114 113 112 111 109 107 106 105 105 104
118 120 123 126 129 131 133 133 133 132 131 131 132 132 133 133 133 132 130 127 124 121 118 115 112 110 109 108 109 110 111 112 113 113 113 112 110 107 106 106 106 105
Wind_Direction
267 268 269 269 270 270 270 270 270 270 270 269 270 271 273 275 276 277 277 277 277 278 278 279 279 279 279 278 278 278 279 280 281 281 282 281 281 281 281 281 281 281
265 266 267 268 269 269 270 269 268 268 267 266 267 269 272 274 275 276 276 277 277 278 279 279 280 280 280 280 279 278 278 278 279 279 280 281 281 280 280 280 281 281
265 266 266 267 268 268 268 268 268 267 266 265 266 268 271 273 274 275 275 276 277 278 279 279 280 280 279 280 280 279 278 278 278 278 278 279 280 280 280 280 280 281
266 266 266 266 267 267 267 267 267 267 266 265 266 268 270 271 272 274 275 275 276 277 278 279 279 279 279 279 279 279 279 278 278 278 278 278 278 279 279 280 280 280
266 266 266 266 267 267 267 267 267 267 267 266 267 268 269 270 271 272 273 274 274 276 277 277 277 278 278 279 279 278 278 278 278 278 278 278 278 278 279 279 280 281
266 266 266 267 267 268 268 268 268 268 268 268 268 268 268 269 270 271 271 272 273 274 275 276 276 277 277 277 278 278 278 278 278 279 278 278 278 278 279 279 280 281
265 265 265 266 267 268 268 268 268 268 268 268 268 268 269 269 271 271 272 272 273 273 274 275 276 276 276 276 276 277 278 278 278 278 278 278 278 279 279 280 280 281
266 265 266 267 267 268 268 268 267 267 267 268 268 268 269 270 271 272 272 272 272 272 273 274 275 275 275 275 275 276 277 277 278 278 278 278 278 279 279 279 280 280
264 265 266 267 268 268 268 268 267 267 266 267 268 269 270 271 272 272 272 272 272 273 273 273 274 274 275 275 275 275 275 276 277 277 277 277 278 278 278 279 279 280
261 262 263 264 266 267 268 268 268 267 267 267 268 269 270 271 271 272 272 272 273 273 273 273 274 274 274 274 275 275 275 275 276 276 276 277 277 277 278 278 279 279
259 260 261 262 263 264 266 267 267 268 268 268 268 269 270 270 272 272 272 272 273 273 273 273 274 274 275 275 275 275 275 275 276 276 276 276 276 277 277 278 278 279
259 260 260 261 262 263 264 265 266 267 268 268 268 269 269 270 272 272 273 273 273 273 274 274 274 275 276 276 276 277 277 277 277 277 277 276 276 277 277 278 279 279
259 259 260 260 261 262 262 264 265 266 266 266 267 268 269 270 271 272 273 274 274 275 275 276 276 276 277 277 278 278 278 279 279 279 279 278 277 277 277 278 278 279
259 259 259 260 261 261 262 262 263 264 264 264 265 266 268 269 271 272 273 274 274 275 276 276 276 276 277 277 277 278 278 279 280 280 280 280 279 278 278 278 278 279
257 258 259 260 260 261 261 262 263 263 263 264 265 266 267 269 271 272 273 274 273 273 273 273 274 274 275 276 276 277 279 279 279 279 279 279 279 278 278 279 279 279
257 258 259 260 260 261 262 262 263 264 264 265 266 267 268 269 270 272 272 272 271 270 271 272 273 274 275 276 278 279 280 281 281 280 280 279 279 279 279 280 280 279
259 259 260 260 260 261 262 262 263 264 265 265 266 268 269 270 269 270 270 270 270 271 272 275 277 279 281 282 283 283 284 284 283 283 282 282 282 282 282 282 281 280
263 262 261 262 262 263 263 264 264 265 266 267 267 268 269 269 269 269 270 272 274 276 278 280 282 284 285 286 286 286 286 285 284 283 283 283 283 283 283 282 282 281
266 265 264 265 265 266 266 266 267 266 266 266 266 267 269 271 272 273 274 276 279 281 282 284 285 286 287 287 287 286 285 284 283 283 283 283 284 283 283 283 283 283
269 269 269 269 270 271 272 272 271 270 269 269 270 271 274 276 277 277 278 280 281 282 284 285 286 286 286 286 286 285 284 283 283 284 284 284 285 285 286 286 286 286
273 273 273 273 274 274 274 274 273 273 272 272 273 275 276 277 278 279 280 281 282 283 284 285 285 286 285 285 285 284 284 284 284 285 285 285 286 286 287 287 287 287
274 275 275 275 274 274 273 272 272 272 273 274 275 276 277 278 279 280 280 281 282 283 284 284 284 284 284 284 284 285 285 285 285 285 286 286 286 287 287 287 287 286
272 273 273 273 273 273 273 272 272 272 273 274 275 275 276 276 277 278 278 280 281 282 283 283 283 283 283 284 284 284 284 284 285 285 285 285 286 287 287 287 286 286
267 268 269 270 270 270 270 271 271 271 271 272 272 273 274 275 276 277 278 279 281 281 282 281 281 281 282 283 283 283 283 283 283 283 284 284 285 286 286 286 286 286
264 265 266 266 267 267 268 268 269 269 270 271 272 273 274 275 276 277 278 279 280 280 280 279 280 280 281 281 282 282 282 282 282 282 283 283 284 284 285 285 286 286
263 263 263 264 264 265 266 267 268 269 270 270 272 273 273 274 275 276 277 278 278 278 278 278 279 279 280 280 280 280 280 280 281 281 282 282 283 284 284 285 285 285
Height
10608 10607 10606 10604 10604 10603 10604 10604 10604 10604 10603 10602 10600 10597 10596 10594 10593 10593 10592 10592 10592 10592 10592 10592 10592 10593 10594 10593 10593 10591 10590 10587 10584 10582 10580 10578 10576 10573 10571 10569 10568 10567
10597 10597 10596 10595 10594 10594 10594 10594 10594 10594 10594 10592 10590 10588 10586 10585 10583 10583 10582 10581 10581 10580 10579 10579 10579 10580 10580 10580 10580 10580 10579 10578 10576 10573 10570 10567 10565 10562 10560 10558 10556 10555
10587 10587 10586 10585 10584 10584 10584 10584 10583 10583 10583 10581 10580 10578 10577 10575 10573 10572 10571 10571 10570 10568 10568 10567 10566 10566 10566 10566 10565 10565 10565 10565 10565 10564 10561 10557 10554 10551 10548 10546 10545 10543
10577 10577 10576 10575 10574 10574 10573 10573 10572 10571 10571 10570 10569 10567 10566 10564 10562 10561 10560 10559 10558 10558 10557 10554 10552 10551 10552 10552 10551 10550 10549 10550 10551 10550 10549 10546 10543 10540 10537 10534 10533 10531
10568 10567 10566 10564 10564 10564 10564 10563 10560 10559 10559 10558 10557 10556 10554 10553 10552 10550 10548 10547 10547 10546 10545 10541 10539 10538 10537 10537 10536 10535 10534 10534 10535 10534 10533 10532 10530 10528 10525 10523 10521 10519
10559 10557 10555 10553 10553 10553 10554 10551 10547 10547 10547 10545 10544 10543 10541 10540 10539 10538 10536 10536 10535 10534 10532 10528 10526 10524 10523 10522 10521 10520 10519 10519 10520 10519 10516 10515 10514 10513 10511 10509 10508 10505
10548 10546 10544 10543 10544 10543 10542 10539 10535 10533 10532 10531 10531 10530 10527 10527 10526 10524 10523 10524 10523 10521 10518 10515 10513 10510 10508 10508 10507 10505 10504 10503 10503 10502 10501 10499 10498 10497 10495 10494 10493 10491
10535 10534 10534 10533 10532 10531 10530 10526 10521 10518 10517 10517 10517 10515 10513 10513 10511 10509 10509 10509 10509 10507 10505 10502 10499 10496 10494 10492 10492 10491 10490 10488 10487 10486 10485 10484 10483 10482 10481 10479 10477 10476
10522 10523 10522 10520 10518 10517 10515 10511 10506 10504 10503 10503 10502 10500 10500 10499 10496 10494 10494 10493 10493 10492 10491 10488 10484 10482 10480 10478 10477 10476 10475 10474 10473 10471 10470 10469 10468 10467 10465 10463 10462 10460
10510 10510 10507 10505 10504 10501 10499 10495 10492 10490 10489 10488 10487 10486 10485 10483 10480 10479 10478 10477 10477 10477 10475 10472 10470 10468 10466 10464 10462 10460 10459 10458 10457 10456 10455 10454 10453 10452 10450 10448 10447 10445
10494 10493 10492 10491 10488 10486 10483 10480 10477 10475 10475 10473 10471 10469 10469 10467 10465 10463 10462 10461 10461 10460 10459 10457 10456 10454 10452 10449 10447 10444 10442 10441 10441 10440 10439 10439 10438 10437 10436 10433 10431 10429
10476 10475 10476 10475 10473 10471 10468 10465 10463 10462 10461 10459 10455 10452 10451 10451 10449 10447 10445 10444 10444 10443 10443 10442 10441 10440 10438 10435 10432 10428 10426 10425 10425 10424 10423 10422 10422 10422 10420 10418 10416 10413
10457 10457 10457 10456 10456 10455 10452 10450 10449 10448 10446 10443 10439 10436 10436 10436 10434 10431 10429 10428 10428 10427 10427 10426 10425 10425 10424 10420 10417 10413 10410 10410 10410 10409 10408 10407 10407 10406 10405 10403 10401 10398
10438 10437 10438 10438 10438 10437 10435 10434 10433 10431 10429 10427 10424 10423 10422 10421 10419 10417 10415 10414 10414 10413 10412 10410 10410 10410 10408 10405 10402 10397 10395 10396 10395 10394 10394 10393 10392 10391 10389 10388 10385 10383
10418 10419 10420 10420 10419 10418 10417 10416 10414 10413 10411 10410 10409 10409 10409 10408 10406 10403 10401 10401 10400 10400 10398 10396 10395 10395 10393 10390 10386 10382 10380 10381 10380 10379 10378 10378 10377 10376 10374 10371 10369 10367
10400 10402 10403 10402 10401 10400 10399 10398 10396 10395 10394 10394 10396 10396 10395 10395 10393 10390 10388 10387 10386 10385 10384 10382 10381 10378 10376 10373 10369 10366 10364 10363 10362 10360 10360 10359 10359 10358 10356 10354 10352 10351
10383 10385 10386 10386 10385 10384 10382 10381 10379 10378 10378 10380 10382 10382 10380 10379 10377 10376 10375 10373 10371 10370 10369 10367 10365 10362 10359 10356 10352 10350 10349 10346 10344 10342 10341 10341 10341 10339 10338 10337 10335 10334
10366 10368 10369 10370 10369 10367 10366 10364 10363 10363 10364 10365 10366 10366 10364 10363 10362 10361 10359 10357 10356 10355 10353 10352 10350 10347 10343 10339 10336 10334 10332 10329 10327 10325 10325 10325 10325 10323 10321 10320 10319 10318
10350 10351 10353 10353 10351 10350 10349 10348 10347 10348 10349 10349 10348 10348 10347 10346 10345 10343 10342 10342 10340 10339 10338 10336 10333 10331 10327 10324 10322 10320 10316 10312 10309 10308 10309 10309 10308 10307 10305 10303 10302 10300
10335 10337 10338 10338 10336 10334 10332 10332 10331 10331 10331 10331 10332 10331 10329 10328 10327 10327 10327 10327 10326 10324 10323 10321 10319 10315 10311 10309 10309 10306 10300 10295 10294 10292 10293 10292 10290 10289 10288 10287 10285 10283
10316 10320 10323 10323 10322 10319 10317 10315 10315 10315 10315 10315 10316 10316 10314 10312 10311 10312 10313 10312 10311 10310 10309 10308 10305 10300 10296 10296 10295 10291 10284 10280 10278 10277 10276 10275 10274 10273 10272 10271 10269 10267
10298 10302 10305 10307 10305 10303 10300 10299 10299 10299 10299 10299 10300 10300 10299 10297 10296 10296 10297 10297 10296 10296 10295 10293 10289 10284 10282 10283 10282 10278 10272 10266 10262 10261 10259 10258 10258 10258 10258 10256 10254 10252
10282 10285 10288 10288 10288 10286 10284 10283 10283 10284 10284 10284 10284 10284 10283 10283 10282 10281 10282 10283 10283 10283 10281 10277 10274 10271 10270 10270 10269 10266 10261 10254 10249 10247 10245 10243 10243 10243 10243 10241 10239 10237
10267 10270 10271 10270 10270 10269 10266 10266 10266 10268 10270 10270 10269 10269 10268 10268 10267 10266 10266 10268 10269 10268 10264 10261 10260 10259 10259 10257 10255 10252 10248 10241 10236 10233 10231 10230 10230 10229 10228 10226 10224 10222
10250 10253 10254 10253 10252 10250 10249 10249 10250 10252 10254 10255 10254 10253 10253 10252 10251 10250 10251 10252 10253 10252 10249 10246 10246 10246 10246 10245 10242 10238 10234 10227 10222 10220 10218 10217 10216 10216 10215 10213 10210 10208
10232 10234 10236 10235 10234 10233 10232 10232 10233 10235 10237 10239 10239 10238 10238 10237 10236 10236 10236 10236 10237 10236 10234 10233 10232 10232 10233 10232 10227 10223 10220 10214 10208 10206 10204 10202 10202 10202 10201 10199 10196 10193